Wind_Speed
66 66 67 67 68 69 69 70 70 71 72 72 73 73 74 75 77 79 81 83 84 86 87 88 89 90 91 93 94 96 97 98 97 98 99 102 104 106 108 110 112 113
67 67 68 68 69 69 70 70 71 71 72 73 74 75 76 78 80 82 84 85 87 88 89 90 91 92 93 94 96 97 98 98 97 99 102 105 107 109 110 112 113 114
67 68 69 69 70 70 70 71 71 73 74 75 77 78 80 82 83 85 86 88 89 90 90 91 92 93 94 96 97 98 99 99 100 103 106 108 110 111 112 113 114 115
68 69 70 70 70 71 71 72 73 75 76 78 80 81 83 84 86 87 89 90 90 91 92 92 93 95 96 97 99 100 101 102 104 107 110 111 112 113 114 115 115 116
69 69 70 70 71 72 73 74 76 77 79 80 82 83 85 87 88 90 90 91 92 92 93 94 95 96 98 99 100 101 103 106 108 110 111 112 113 114 114 115 115 115
69 70 71 72 73 74 75 77 78 80 81 82 84 86 88 89 90 91 92 92 93 94 94 95 96 97 98 99 101 103 106 108 109 110 111 112 113 113 114 114 114 115
70 72 73 74 75 76 78 79 80 82 83 85 87 89 90 91 92 92 92 93 94 94 94 95 96 97 98 99 101 104 106 108 109 111 111 112 112 113 113 114 114 115
72 74 75 76 77 79 80 81 83 84 86 88 89 91 92 92 92 92 92 93 93 93 94 95 96 97 99 100 103 105 107 109 110 111 112 112 112 113 114 114 115 116
74 76 77 79 80 81 82 84 85 87 89 90 91 92 93 93 92 92 92 92 92 93 94 96 97 99 100 102 104 106 108 109 110 112 112 113 113 114 114 115 116 118
76 78 79 81 82 83 84 86 88 89 91 92 92 93 93 92 91 91 92 92 93 94 96 97 99 101 103 104 106 107 109 110 112 113 113 114 114 115 116 117 118 119
78 79 81 82 84 85 87 88 89 90 91 92 92 93 92 91 91 92 93 94 95 96 98 99 101 103 105 106 107 108 110 112 113 114 114 115 115 116 117 119 120 121
79 81 82 84 86 87 88 89 90 90 91 91 92 92 91 91 93 94 95 96 97 98 100 102 104 105 106 108 108 110 112 113 114 115 115 115 116 118 119 120 122 122
81 83 84 86 87 88 89 89 89 89 90 90 91 92 92 93 95 96 97 97 99 100 102 104 105 106 108 109 110 111 113 114 115 116 116 117 118 119 121 122 123 124
83 84 85 86 87 88 89 89 89 90 90 91 92 93 94 95 97 97 98 99 100 102 104 105 106 108 109 110 111 113 115 115 116 117 118 119 120 121 122 123 125 125
84 85 85 87 88 89 90 90 91 92 93 93 94 95 96 97 98 98 99 101 102 104 105 107 108 110 111 112 113 115 116 116 117 119 120 121 122 123 124 125 126 127
85 86 87 89 89 91 92 93 94 94 94 94 95 96 97 98 99 99 101 103 104 106 107 109 111 112 113 114 115 116 117 118 120 121 123 124 125 126 127 128 128 128
88 89 90 91 92 93 94 95 95 95 95 96 97 98 99 99 100 101 103 105 107 109 110 111 113 114 115 116 117 118 119 120 122 124 125 126 127 128 129 130 130 130
91 92 93 93 94 95 95 95 95 95 96 97 99 100 100 101 102 104 106 108 110 111 112 114 115 117 118 118 119 120 121 123 124 126 128 129 130 131 131 132 132 131
93 94 94 95 95 95 96 95 96 96 98 99 100 101 102 102 104 106 109 111 112 114 115 116 118 119 120 120 121 123 124 125 126 128 130 132 133 133 133 133 133 132
95 95 95 95 95 96 96 96 97 98 99 100 101 102 104 105 107 109 112 114 115 117 118 119 121 121 122 123 124 125 126 127 129 131 133 134 135 135 135 135 134 134
95 94 94 94 95 95 96 97 98 99 101 102 103 105 107 109 110 112 115 117 118 120 121 122 123 124 124 125 127 127 128 130 132 134 135 137 137 138 137 136 136 135
93 92 93 94 95 96 97 99 100 102 103 104 106 108 110 112 114 116 118 120 121 123 124 125 126 127 128 128 129 131 132 133 135 136 138 139 140 140 138 137 137 136
92 93 94 96 97 99 100 102 103 105 106 108 110 112 113 115 117 119 121 123 124 125 126 128 129 130 131 132 133 134 135 136 137 139 140 141 142 140 139 138 137 136
95 96 98 99 101 102 104 105 107 108 110 112 114 116 117 119 121 123 125 126 127 128 130 131 133 134 135 136 137 138 139 139 140 141 142 142 142 140 139 138 137 135
99 100 102 103 105 106 107 109 111 113 115 116 118 120 122 123 125 127 128 129 131 132 133 135 136 138 139 140 141 141 142 142 143 143 143 142 141 140 139 138 135 132
104 105 106 108 109 111 112 114 115 117 119 121 123 124 126 127 129 130 131 133 134 136 137 138 140 142 143 143 144 144 144 144 144 144 143 142 140 139 138 135 132 129
Wind_Direction
279 280 280 281 282 283 284 285 285 285 286 286 287 288 289 291 292 293 293 294 295 296 296 296 296 296 296 295 295 295 296 297 299 300 300 300 300 300 300 299 299 299
279 280 281 282 283 283 284 284 285 286 286 287 288 289 291 292 293 294 294 295 296 296 297 297 297 297 296 296 296 296 297 298 299 299 299 299 299 300 299 299 299 299
280 281 281 282 282 283 284 285 286 286 287 288 289 291 292 293 294 294 295 296 296 297 297 297 297 297 297 297 297 298 298 298 298 298 298 299 299 300 299 299 299 299
280 280 281 282 282 283 284 285 286 287 288 290 291 292 293 293 294 294 295 296 297 297 298 298 298 298 298 298 298 299 298 298 298 298 298 299 299 299 299 299 299 299
280 280 281 282 283 284 285 286 287 289 290 291 292 292 293 293 294 295 296 297 297 298 298 298 298 298 298 299 299 299 298 298 298 298 298 298 298 299 299 299 299 300
280 281 281 282 283 284 285 287 288 289 290 291 292 293 293 294 295 296 297 297 298 298 299 299 299 299 299 299 299 299 299 298 298 298 298 298 298 298 299 299 300 301
281 282 282 283 284 285 286 287 289 290 291 292 292 293 294 294 295 296 297 298 298 299 299 299 299 299 299 299 300 299 299 299 298 298 298 298 298 299 299 300 301 302
282 283 283 284 285 286 287 288 289 291 292 292 293 293 294 295 296 297 297 298 298 299 299 299 299 299 300 300 300 299 299 298 298 298 298 299 299 300 300 301 302 303
283 283 284 285 286 287 288 289 290 291 292 292 293 294 294 295 296 297 298 298 299 299 299 299 300 300 300 300 299 299 299 299 299 299 299 300 300 301 302 302 303 303
284 284 285 286 287 288 289 290 291 291 292 293 293 294 294 295 296 297 298 299 299 299 299 300 300 300 300 300 299 299 299 299 299 300 301 301 302 302 303 303 304 304
285 286 287 288 289 289 290 290 291 292 292 293 294 294 294 295 296 298 298 298 298 299 299 300 300 300 300 300 300 300 300 300 301 301 302 302 302 303 304 304 305 305
287 288 288 288 289 289 290 291 292 293 293 294 294 294 294 295 296 297 297 298 298 299 299 299 299 299 300 300 300 300 301 301 301 302 302 303 303 304 305 305 306 306
288 288 289 289 290 290 291 291 293 294 295 294 294 294 294 294 295 296 297 297 298 299 299 299 299 299 300 300 301 301 302 302 302 303 303 304 304 305 306 306 306 307
288 289 289 290 290 290 291 292 293 294 294 294 294 293 293 294 295 296 297 298 298 299 299 299 299 300 300 301 302 302 302 303 303 304 304 305 306 306 307 307 307 308
289 289 289 289 290 291 292 292 293 293 293 293 293 293 293 294 295 296 297 298 298 299 299 299 300 300 301 302 302 303 303 304 304 305 306 306 307 307 308 308 308 309
288 288 289 289 290 290 291 292 292 292 292 292 292 292 293 294 295 297 298 298 299 299 299 300 300 301 302 302 303 303 304 305 306 306 307 308 308 309 309 309 309 309
287 288 288 289 289 290 290 291 291 292 292 292 292 293 294 295 297 298 298 299 299 299 300 301 301 302 302 303 303 304 305 306 307 308 308 309 309 310 310 310 310 310
286 287 287 288 289 289 290 290 291 291 292 292 293 294 295 296 297 298 299 299 299 300 301 301 302 302 302 303 304 305 306 307 308 309 309 310 310 310 310 311 310 310
285 286 287 287 288 289 290 291 291 291 292 293 294 295 296 297 298 299 299 300 300 301 301 302 302 302 303 304 305 306 307 308 309 310 310 310 311 311 311 311 311 311
285 286 287 288 289 290 290 291 291 292 293 294 295 296 297 298 299 299 300 300 301 301 302 302 302 303 304 305 306 307 308 309 310 310 310 311 311 311 311 311 312 311
286 287 288 289 289 290 291 292 292 293 294 295 296 297 298 299 300 300 300 301 301 302 302 303 303 304 305 306 307 308 309 309 310 310 311 311 311 311 311 312 312 311
288 289 289 290 290 291 292 293 294 294 295 297 298 298 299 300 300 300 301 301 302 302 303 304 305 306 306 307 308 308 309 310 310 310 311 311 311 311 311 312 312 311
289 290 290 291 292 293 294 294 295 296 297 298 299 299 300 300 301 301 301 302 302 303 304 305 306 307 307 308 308 309 309 310 310 310 311 311 310 311 311 312 311 311
291 291 292 293 294 295 295 296 297 298 299 299 300 300 300 301 301 302 302 303 304 305 306 306 307 307 308 308 308 309 309 309 310 310 310 310 310 311 311 311 311 310
293 293 294 295 296 297 298 298 299 300 300 300 301 301 301 301 302 302 303 304 305 306 306 307 307 307 308 308 308 309 309 309 309 310 310 310 310 311 311 311 310 310
295 296 296 297 298 298 299 300 300 300 300 300 300 301 301 302 302 303 304 305 306 306 306 307 307 307 307 308 308 308 308 309 309 309 309 309 310 311 310 310 309 309
Height
10675 10673 10671 10669 10667 10665 10663 10660 10658 10655 10653 10650 10647 10644 10641 10639 10635 10631 10628 10625 10621 10618 10614 10610 10606 10601 10597 10592 10587 10582 10577 10572 10567 10563 10557 10552 10547 10542 10536 10531 10525 10519
10668 10666 10663 10661 10659 10657 10655 10652 10650 10647 10644 10641 10638 10636 10633 10630 10626 10622 10619 10615 10612 10608 10604 10600 10596 10591 10586 10582 10576 10571 10565 10560 10556 10551 10546 10540 10535 10530 10524 10518 10512 10506
10660 10658 10655 10653 10651 10649 10647 10644 10641 10639 10636 10633 10630 10627 10624 10620 10616 10613 10609 10606 10602 10598 10594 10590 10585 10581 10576 10571 10565 10559 10554 10549 10545 10540 10534 10528 10523 10518 10512 10505 10499 10492
10652 10650 10647 10645 10643 10641 10638 10636 10633 10630 10627 10624 10621 10618 10614 10611 10607 10603 10599 10596 10592 10588 10583 10579 10575 10570 10565 10560 10554 10548 10542 10537 10533 10527 10522 10516 10511 10505 10499 10493 10485 10478
10644 10642 10639 10637 10635 10632 10630 10627 10624 10621 10618 10615 10612 10608 10605 10600 10597 10593 10589 10585 10581 10577 10572 10568 10563 10559 10554 10549 10543 10537 10531 10525 10520 10515 10509 10504 10499 10493 10486 10480 10473 10464
10636 10633 10631 10629 10626 10624 10621 10618 10616 10613 10609 10606 10602 10598 10594 10590 10586 10582 10579 10574 10570 10565 10561 10556 10552 10547 10542 10538 10532 10526 10519 10513 10507 10502 10497 10492 10486 10480 10473 10467 10460 10451
10628 10625 10622 10620 10617 10615 10612 10609 10606 10603 10600 10596 10592 10587 10583 10579 10576 10572 10568 10563 10558 10554 10549 10544 10540 10535 10531 10527 10521 10514 10507 10500 10495 10489 10484 10479 10473 10466 10460 10453 10446 10438
10619 10616 10614 10611 10608 10606 10603 10600 10597 10594 10590 10585 10581 10576 10572 10569 10565 10561 10556 10552 10547 10542 10537 10533 10528 10524 10519 10515 10509 10502 10495 10488 10483 10476 10471 10465 10459 10452 10446 10439 10432 10424
10610 10607 10604 10602 10599 10596 10594 10591 10587 10583 10579 10575 10570 10566 10562 10558 10555 10550 10545 10540 10535 10530 10525 10521 10516 10512 10507 10502 10497 10490 10483 10476 10470 10463 10457 10452 10445 10438 10431 10424 10417 10410
10600 10597 10595 10592 10589 10586 10584 10580 10577 10573 10568 10564 10560 10555 10551 10548 10543 10539 10534 10529 10524 10519 10514 10509 10505 10500 10495 10490 10484 10478 10470 10463 10456 10450 10444 10438 10431 10424 10416 10409 10402 10394
10590 10588 10585 10582 10579 10576 10573 10570 10566 10562 10557 10553 10548 10544 10540 10536 10532 10527 10522 10517 10512 10507 10503 10498 10493 10488 10482 10477 10471 10465 10458 10450 10443 10436 10431 10424 10417 10409 10402 10394 10386 10377
10580 10577 10574 10572 10569 10565 10562 10559 10555 10550 10546 10541 10537 10532 10529 10525 10521 10516 10511 10506 10501 10496 10491 10486 10481 10475 10469 10464 10458 10452 10444 10436 10429 10423 10417 10410 10403 10395 10387 10379 10369 10361
10569 10567 10564 10561 10558 10554 10550 10547 10543 10539 10535 10530 10525 10521 10517 10514 10510 10505 10501 10496 10490 10484 10479 10474 10468 10462 10457 10451 10445 10438 10430 10422 10415 10408 10402 10395 10388 10380 10372 10363 10354 10345
10559 10556 10553 10550 10546 10542 10539 10536 10532 10528 10524 10519 10515 10511 10506 10503 10499 10494 10490 10484 10478 10473 10467 10461 10455 10449 10443 10438 10431 10424 10416 10409 10401 10393 10386 10379 10372 10364 10356 10347 10338 10330
10548 10545 10542 10538 10535 10531 10528 10525 10522 10518 10513 10509 10504 10499 10495 10491 10487 10483 10478 10472 10466 10460 10455 10449 10442 10436 10430 10424 10417 10410 10403 10395 10387 10378 10371 10363 10355 10348 10340 10331 10322 10314
10537 10534 10531 10528 10525 10521 10518 10515 10511 10508 10503 10498 10493 10488 10484 10480 10476 10471 10466 10460 10454 10448 10442 10436 10429 10422 10416 10410 10403 10396 10389 10381 10372 10363 10355 10346 10339 10331 10323 10315 10306 10298
10527 10524 10521 10518 10515 10511 10508 10505 10501 10497 10492 10486 10480 10476 10472 10469 10464 10459 10453 10447 10441 10435 10429 10423 10415 10408 10402 10395 10389 10383 10375 10367 10358 10348 10339 10330 10322 10315 10307 10298 10290 10282
10517 10514 10511 10508 10505 10501 10497 10494 10489 10485 10479 10473 10468 10464 10460 10457 10452 10446 10439 10433 10427 10421 10416 10409 10402 10394 10388 10382 10376 10368 10361 10353 10343 10333 10324 10314 10306 10298 10290 10282 10273 10265
10506 10503 10500 10497 10494 10490 10486 10482 10477 10472 10466 10461 10456 10451 10448 10444 10438 10432 10425 10418 10413 10407 10402 10395 10387 10380 10374 10368 10361 10354 10346 10338 10328 10318 10309 10299 10290 10283 10274 10266 10258 10250
10495 10492 10490 10486 10482 10477 10473 10469 10464 10459 10454 10448 10444 10439 10435 10430 10424 10418 10411 10404 10399 10393 10387 10380 10372 10365 10359 10352 10345 10338 10331 10323 10313 10303 10294 10285 10275 10267 10259 10251 10243 10234
10483 10481 10478 10473 10469 10464 10460 10456 10450 10446 10441 10436 10431 10426 10420 10415 10410 10403 10397 10390 10384 10378 10371 10364 10356 10349 10343 10336 10328 10321 10314 10308 10299 10288 10279 10270 10260 10251 10244 10237 10228 10218
10472 10469 10464 10460 10456 10451 10447 10442 10437 10432 10427 10422 10417 10412 10406 10400 10394 10389 10382 10375 10369 10362 10355 10348 10339 10332 10325 10319 10311 10304 10297 10292 10284 10274 10265 10255 10243 10235 10229 10222 10212 10201
10459 10454 10450 10446 10442 10438 10433 10428 10423 10418 10413 10408 10402 10397 10391 10385 10379 10373 10367 10360 10353 10346 10339 10331 10323 10314 10307 10301 10294 10287 10280 10275 10268 10259 10251 10240 10228 10221 10214 10206 10195 10184
10444 10439 10435 10431 10427 10423 10418 10413 10409 10404 10398 10392 10387 10382 10376 10369 10363 10357 10350 10343 10336 10329 10322 10314 10306 10296 10288 10283 10277 10270 10263 10257 10250 10243 10234 10224 10214 10207 10199 10189 10178 10168
10428 10424 10421 10416 10412 10408 10403 10398 10394 10388 10382 10377 10371 10365 10359 10353 10347 10340 10333 10326 10319 10312 10305 10298 10289 10279 10271 10265 10259 10252 10245 10239 10233 10226 10217 10207 10199 10192 10183 10173 10162 10153
10413 10409 10405 10401 10396 10392 10387 10383 10378 10372 10366 10361 10355 10349 10343 10337 10330 10323 10316 10309 10302 10295 10289 10281 10273 10264 10254 10247 10241 10234 10227 10221 10216 10209 10200 10191 10184 10177 10167 10157 10147 10138